Lacon, IL

3:35 AM CDT on May 27, 2018 (GMT -0500)
Lacon

Weather History for KC75 - January, 2014

Change the Weather History Date:

Tuesday, January 21, 2014

  Actual Average (KVYS) Record (KVYS)
Temperature  
Mean Temperature 5 °F -  
Max Temperature 14 °F 29 °F 56 °F (1964)
Min Temperature -4 °F 15 °F -20 °F (1984)
Degree Days  
Heating Degree Days 60    
Moisture  
Dew Point -3 °F    
Average Humidity 72    
Maximum Humidity 88    
Minimum Humidity 60    
Precipitation  
Precipitation 0.00 in - - ()
Sea Level Pressure  
Sea Level Pressure 30.26 in    
Wind  
Wind Speed 12 mph (NNW)    
Max Wind Speed 22 mph    
Max Gust Speed 34 mph    
Visibility 10 miles    
Events Snow    
Averages and records for this station are not official NWS values.
T = Trace of Precipitation, MM = Missing Value Source: NWS Daily Summary

Daily Weather History Graph

Daily Weather History Graph

Search for Another Location

Airport or City:

Astronomy

Jan. 21, 2014 Rise Set
Actual Time 7:16 AM CST 5:00 PM CST
Civil Twilight 6:46 AM CST 5:30 PM CST
Nautical Twilight 6:13 AM CST 6:04 PM CST
Astronomical Twilight 5:40 AM CST 6:37 PM CST
Moon 10:36 PM CST (1/21) 9:43 AM CST (1/21)
Length of Visible Light 10h 43m
Length of Day
9h 44m
Waning Gibbous, 74% of the Moon is Illuminated
Jan 21
Waning Gibbous
Jan 23
Last Quarter
Jan 30
New
Feb 6
First Quarter
Feb 14
Full

Hourly Weather History & Observations

Time (CST) Temp. Windchill Dew Point Humidity Pressure Visibility Wind Dir Wind Speed Gust Speed Precip Events Conditions
12:15 AM 14.0 °F -2.0 °F 10.9 °F 88% 30.07 in - North 16.1 mph 25.3 mph N/A   Overcast
12:35 AM 13.8 °F -4.5 °F 10.4 °F 86% 30.08 in - North 21.9 mph 27.6 mph N/A   Overcast
12:55 AM 13.8 °F -2.7 °F 10.4 °F 86% 30.09 in - North 17.3 mph 25.3 mph N/A   Unknown
1:15 AM 12.9 °F -0.9 °F 9.3 °F 86% 30.10 in - North 11.5 mph 28.8 mph N/A   Overcast
1:35 AM 12.2 °F -4.3 °F 8.6 °F 85% 30.11 in - North 16.1 mph 29.9 mph N/A   Overcast
1:55 AM 12.0 °F -4.5 °F 7.7 °F 83% 30.13 in - North 16.1 mph 25.3 mph N/A   Overcast
2:15 AM 10.4 °F -7.2 °F 5.7 °F 81% 30.15 in - North 17.3 mph 31.1 mph N/A   Overcast
2:35 AM 9.9 °F -8.9 °F 5.9 °F 84% 30.17 in - North 19.6 mph 24.2 mph N/A   Unknown
2:55 AM 9.1 °F -7.7 °F 5.7 °F 86% 30.18 in - North 15.0 mph 21.9 mph N/A   Unknown
3:15 AM 8.6 °F -8.3 °F 5.0 °F 85% 30.20 in - North 15.0 mph 27.6 mph N/A   Unknown
3:35 AM 8.6 °F -9.5 °F 4.1 °F 82% 30.21 in - North 17.3 mph 25.3 mph N/A   Unknown
3:55 AM 7.7 °F -11.7 °F 1.8 °F 77% 30.22 in - North 19.6 mph 34.5 mph N/A   Overcast
4:15 AM 7.5 °F -12.4 °F 1.6 °F 77% 30.23 in - North 20.7 mph 27.6 mph N/A   Overcast
4:35 AM 6.8 °F -12.9 °F 0.5 °F 75% 30.24 in - North 19.6 mph 27.6 mph N/A   Overcast
4:55 AM 6.1 °F -12.2 °F -0.2 °F 75% 30.25 in - North 16.1 mph 23.0 mph N/A   Overcast
5:35 AM 5.7 °F -12.6 °F -2.2 °F 70% 30.26 in - North 16.1 mph 24.2 mph N/A   Overcast
6:15 AM 4.6 °F -14.6 °F -4.2 °F 67% 30.29 in 4.0 mi North 17.3 mph 27.6 mph N/A Snow Light Snow
6:35 AM 4.5 °F -13.0 °F -4.7 °F 66% 30.30 in 7.0 mi North 13.8 mph 23.0 mph N/A   Overcast
6:55 AM 4.1 °F -12.7 °F -4.9 °F 66% 30.31 in 7.0 mi North 12.7 mph 21.9 mph N/A   Overcast
7:15 AM 3.9 °F -16.1 °F -5.3 °F 66% 30.32 in 10.0 mi NNW 18.4 mph 23.0 mph N/A   Overcast
7:35 AM 3.2 °F -14.6 °F -5.8 °F 66% 30.32 in 10.0 mi North 13.8 mph 20.7 mph N/A   Mostly Cloudy
7:55 AM 2.3 °F -15.7 °F -6.3 °F 67% 30.33 in 10.0 mi North 13.8 mph 17.3 mph N/A   Scattered Clouds
8:15 AM 2.3 °F -12.4 °F -6.7 °F 66% 30.34 in 7.0 mi North 9.2 mph - N/A   Clear
8:35 AM 2.3 °F -12.4 °F -6.7 °F 66% 30.34 in 10.0 mi North 9.2 mph 16.1 mph N/A   Clear
8:55 AM 2.3 °F -13.4 °F -7.1 °F 65% 30.35 in 10.0 mi North 10.4 mph - N/A   Clear
9:15 AM 2.7 °F -10.9 °F -6.9 °F 64% 30.35 in 10.0 mi North 8.1 mph 16.1 mph N/A   Clear
9:35 AM 2.7 °F -12.9 °F -6.9 °F 64% 30.35 in 10.0 mi North 10.4 mph - N/A   Clear
9:55 AM 3.0 °F -12.5 °F -6.9 °F 63% 30.36 in 10.0 mi North 10.4 mph - N/A   Clear
10:15 AM 3.6 °F -11.8 °F -6.7 °F 62% 30.36 in 10.0 mi North 10.4 mph - N/A   Clear
10:35 AM 4.1 °F -10.2 °F -6.3 °F 62% 30.37 in 10.0 mi NW 9.2 mph - N/A   Clear
11:15 AM 4.1 °F -11.1 °F -6.3 °F 62% 30.36 in 10.0 mi NNW 10.4 mph - N/A   Clear
11:35 AM 4.5 °F -9.8 °F -6.0 °F 62% 30.35 in 10.0 mi NW 9.2 mph - N/A   Clear
11:55 AM 5.0 °F -6.9 °F -6.2 °F 60% 30.34 in 10.0 mi NNW 6.9 mph - N/A   Clear
12:15 PM 5.5 °F -8.4 °F -5.1 °F 62% 30.33 in 10.0 mi WNW 9.2 mph - N/A   Clear
12:35 PM 5.0 °F -10.0 °F -4.5 °F 65% 30.33 in 10.0 mi WNW 10.4 mph - N/A   Clear
12:55 PM 5.4 °F -10.4 °F -4.2 °F 65% 30.32 in 10.0 mi NW 11.5 mph - N/A   Clear
1:15 PM 5.7 °F -8.2 °F -4.2 °F 64% 30.31 in 10.0 mi WNW 9.2 mph - N/A   Clear
1:35 PM 5.5 °F -10.2 °F -4.2 °F 64% 30.31 in 10.0 mi NW 11.5 mph - N/A   Clear
1:55 PM 5.4 °F -10.4 °F -4.2 °F 65% 30.31 in 10.0 mi NW 11.5 mph - N/A   Clear
2:15 PM 5.5 °F -9.3 °F -4.0 °F 65% 30.30 in 10.0 mi NW 10.4 mph - N/A   Clear
2:35 PM 5.0 °F -9.1 °F -4.7 °F 64% 30.29 in 10.0 mi NW 9.2 mph - N/A   Clear
2:55 PM 5.0 °F -9.1 °F -4.4 °F 65% 30.30 in 10.0 mi NW 9.2 mph - N/A   Clear
3:15 PM 5.4 °F -8.6 °F -4.2 °F 65% 30.30 in 10.0 mi NW 9.2 mph - N/A   Clear
3:35 PM 5.5 °F -6.3 °F -4.0 °F 65% 30.29 in 10.0 mi NW 6.9 mph - N/A   Clear
3:55 PM 5.5 °F -7.4 °F -4.4 °F 64% 30.28 in 10.0 mi NW 8.1 mph - N/A   Clear
4:15 PM 5.4 °F -6.5 °F -4.4 °F 64% 30.29 in 10.0 mi NW 6.9 mph - N/A   Clear
4:55 PM 4.5 °F -7.6 °F -4.9 °F 65% 30.29 in 10.0 mi NW 6.9 mph - N/A   Clear
5:15 PM 4.1 °F -5.1 °F -4.9 °F 66% 30.28 in 10.0 mi NW 4.6 mph - N/A   Clear
5:35 PM 4.1 °F - -4.5 °F 67% 30.28 in 10.0 mi Calm Calm - N/A   Clear
6:15 PM 3.6 °F -3.8 °F -4.9 °F 68% 30.28 in 10.0 mi NW 3.5 mph - N/A   Clear
6:35 PM 2.8 °F - -5.1 °F 70% 30.27 in 10.0 mi Calm Calm - N/A   Clear
6:55 PM 2.3 °F - -5.1 °F 71% 30.27 in 10.0 mi Calm Calm - N/A   Clear
7:15 PM 2.3 °F - -4.7 °F 72% 30.26 in 10.0 mi Calm Calm - N/A   Clear
7:35 PM 1.6 °F - -4.4 °F 76% 30.25 in 10.0 mi Calm Calm - N/A   Clear
7:55 PM 1.2 °F - -5.3 °F 74% 30.23 in 10.0 mi Calm Calm - N/A   Clear
8:15 PM 2.1 °F - -4.7 °F 73% 30.22 in 10.0 mi Calm Calm - N/A   Clear
8:35 PM 0.1 °F - -5.8 °F 76% 30.22 in 10.0 mi Calm Calm - N/A   Clear
8:55 PM 0.1 °F - -5.1 °F 79% 30.23 in 10.0 mi Calm Calm - N/A   Clear
9:15 PM -1.8 °F - -6.2 °F 82% 30.24 in 10.0 mi Calm Calm - N/A   Clear
9:35 PM -2.9 °F - -7.1 °F 82% 30.24 in 10.0 mi Calm Calm - N/A   Clear
9:55 PM -2.7 °F - -6.7 °F 83% 30.24 in 10.0 mi Calm Calm - N/A   Clear
10:15 PM -4.0 °F - -8.3 °F 82% 30.24 in 10.0 mi Calm Calm - N/A   Mostly Cloudy
10:35 PM -2.9 °F - -7.4 °F 81% 30.25 in 10.0 mi Calm Calm - N/A   Overcast
10:55 PM 0.1 °F - -4.9 °F 79% 30.24 in 10.0 mi Calm Calm - N/A   Overcast
11:15 PM 1.4 °F - -3.8 °F 79% 30.23 in 10.0 mi Calm Calm - N/A   Overcast
11:35 PM 2.3 °F - -3.3 °F 77% 30.22 in 10.0 mi Calm Calm - N/A   Overcast
11:55 PM 3.2 °F - -2.6 °F 77% 30.21 in 10.0 mi Calm Calm - N/A   Overcast